Wetterdaten: Mittwoch, 13.06.2007
Datum Zeit Temp. a Sch. Temp. a Son. Temp. a Bod. Feuchte a. Luftdruck Regen Wind Richtung Richtung Sonnenschein Helligkeit Taupunkt Windchill
13.06.2007 00:00 16,6 C 17,0 C 17,4 C 72 % 1010 hPa 0,0 l/m 3,5 m/s (3 Bft) W22.5 265 0 min 0 lux 11,5 C 13,9 C
13.06.2007 00:05 16,6 C 17,0 C 17,6 C 72 % 1010 hPa 0,0 l/m 4,9 m/s (3 Bft) W-NW45 290 0 min 0 lux 11,5 C 12,4 C
13.06.2007 00:10 16,6 C 17,0 C 17,5 C 72 % 1010 hPa 0,0 l/m 3,3 m/s (2 Bft) W45 275 0 min 0 lux 11,5 C 14,1 C
13.06.2007 00:15 16,6 C 17,0 C 17,4 C 72 % 1010 hPa 0,0 l/m 2,6 m/s (2 Bft) W22.5 260 0 min 0 lux 11,5 C 15,2 C
13.06.2007 00:20 16,6 C 17,0 C 17,4 C 72 % 1010 hPa 0,0 l/m 3,6 m/s (3 Bft) W22.5 265 0 min 0 lux 11,5 C 13,8 C
13.06.2007 00:25 16,5 C 17,0 C 17,2 C 73 % 1010 hPa 0,0 l/m 3,2 m/s (2 Bft) W22.5 270 0 min 0 lux 11,6 C 14,2 C
13.06.2007 00:30 16,4 C 16,9 C 17,1 C 73 % 1010 hPa 0,0 l/m 3,8 m/s (3 Bft) W22.5 270 0 min 0 lux 11,5 C 13,3 C
13.06.2007 00:35 16,4 C 16,8 C 17,1 C 74 % 1010 hPa 0,0 l/m 3,1 m/s (2 Bft) W22.5 280 0 min 0 lux 11,8 C 14,3 C
13.06.2007 00:40 16,0 C 16,6 C 16,9 C 74 % 1010 hPa 0,0 l/m 2,6 m/s (2 Bft) W22.5 270 0 min 0 lux 11,4 C 14,5 C
13.06.2007 00:45 15,9 C 16,5 C 16,9 C 76 % 1010 hPa 0,0 l/m 2,2 m/s (2 Bft) W22.5 270 0 min 0 lux 11,7 C 15,1 C
13.06.2007 00:50 15,8 C 16,4 C 16,8 C 77 % 1010 hPa 0,0 l/m 0,1 m/s (0 Bft) W-SW22.5 250 0 min 0 lux 11,8 C 15,8 C
13.06.2007 00:55 15,5 C 16,2 C 16,6 C 78 % 1010 hPa 0,0 l/m 1,1 m/s (1 Bft) SW22.5 235 0 min 0 lux 11,7 C 15,5 C
13.06.2007 01:00 15,4 C 16,1 C 16,3 C 78 % 1010 hPa 0,0 l/m 0,3 m/s (0 Bft) SW22.5 235 0 min 0 lux 11,6 C 15,4 C
13.06.2007 01:05 15,4 C 16,0 C 16,5 C 79 % 1010 hPa 0,0 l/m 2,0 m/s (2 Bft) W-SW22.5 240 0 min 0 lux 11,8 C 15,0 C
13.06.2007 01:10 15,1 C 15,8 C 16,2 C 79 % 1010 hPa 0,0 l/m 0,0 m/s (0 Bft) SW 230 0 min 0 lux 11,5 C 15,1 C
13.06.2007 01:15 15,0 C 15,7 C 16,3 C 81 % 1010 hPa 0,0 l/m 0,0 m/s (0 Bft) SW 230 0 min 0 lux 11,8 C 15,0 C
13.06.2007 01:20 14,9 C 15,6 C 16,2 C 82 % 1010 hPa 0,0 l/m 0,1 m/s (0 Bft) SW 230 0 min 0 lux 11,9 C 14,9 C
13.06.2007 01:25 14,8 C 15,4 C 16,3 C 82 % 1010 hPa 0,0 l/m 1,0 m/s (1 Bft) SW 230 0 min 0 lux 11,8 C 14,8 C
13.06.2007 01:29 14,5 C 15,3 C 15,8 C 82 % 1009 hPa 0,0 l/m 0,0 m/s (0 Bft) SW 230 0 min 0 lux 11,5 C 14,5 C
13.06.2007 01:35 14,4 C 15,3 C 15,6 C 82 % 1010 hPa 0,0 l/m 0,0 m/s (0 Bft) SW 230 0 min 0 lux 11,4 C 14,4 C
13.06.2007 01:40 14,2 C 15,1 C 15,6 C 83 % 1010 hPa 0,0 l/m 0,0 m/s (0 Bft) SW 230 0 min 0 lux 11,4 C 14,2 C
13.06.2007 01:45 13,9 C 14,9 C 15,6 C 84 % 1010 hPa 0,0 l/m 0,0 m/s (0 Bft) SW 230 0 min 0 lux 11,2 C 13,9 C
13.06.2007 01:50 13,7 C 14,8 C 15,2 C 84 % 1010 hPa 0,0 l/m 0,0 m/s (0 Bft) SW 230 0 min 0 lux 11,0 C 13,7 C
13.06.2007 01:55 13,7 C 14,7 C 14,9 C 85 % 1010 hPa 0,0 l/m 0,0 m/s (0 Bft) SW 230 0 min 0 lux 11,2 C 13,7 C
13.06.2007 02:00 13,6 C 14,5 C 15,1 C 86 % 1010 hPa 0,0 l/m 0,0 m/s (0 Bft) SW 230 0 min 0 lux 11,3 C 13,6 C
13.06.2007 02:05 13,6 C 14,5 C 15,1 C 86 % 1010 hPa 0,0 l/m 0,0 m/s (0 Bft) SW 230 0 min 0 lux 11,3 C 13,6 C
13.06.2007 02:10 13,4 C 14,3 C 14,9 C 87 % 1010 hPa 0,0 l/m 0,0 m/s (0 Bft) S-SW45 195 0 min 0 lux 11,3 C 13,4 C
13.06.2007 02:15 13,2 C 14,2 C 15,0 C 87 % 1010 hPa 0,0 l/m 0,0 m/s (0 Bft) S 180 0 min 0 lux 11,1 C 13,2 C
13.06.2007 02:20 13,2 C 14,1 C 14,8 C 87 % 1010 hPa 0,0 l/m 0,0 m/s (0 Bft) S 180 0 min 0 lux 11,1 C 13,2 C
13.06.2007 02:25 13,1 C 14,0 C 14,9 C 87 % 1010 hPa 0,0 l/m 0,0 m/s (0 Bft) S 180 0 min 0 lux 11,0 C 13,1 C
13.06.2007 02:30 13,1 C 13,9 C 14,8 C 88 % 1010 hPa 0,0 l/m 0,0 m/s (0 Bft) S 180 0 min 0 lux 11,2 C 13,1 C
13.06.2007 02:35 13,3 C 13,9 C 14,9 C 88 % 1010 hPa 0,0 l/m 0,0 m/s (0 Bft) S 180 0 min 0 lux 11,4 C 13,3 C
13.06.2007 02:40 13,2 C 13,9 C 14,7 C 89 % 1010 hPa 0,0 l/m 0,0 m/s (0 Bft) S 180 0 min 0 lux 11,4 C 13,2 C
13.06.2007 02:45 13,2 C 13,8 C 14,5 C 89 % 1010 hPa 0,0 l/m 0,0 m/s (0 Bft) S 180 0 min 0 lux 11,4 C 13,2 C
13.06.2007 02:50 13,0 C 13,8 C 14,5 C 89 % 1010 hPa 0,0 l/m 0,0 m/s (0 Bft) S 180 0 min 0 lux 11,2 C 13,0 C
13.06.2007 02:55 13,0 C 13,7 C 14,3 C 89 % 1010 hPa 0,0 l/m 0,0 m/s (0 Bft) S 180 0 min 0 lux 11,2 C 13,0 C
13.06.2007 03:00 12,8 C 13,6 C 14,4 C 89 % 1009 hPa 0,0 l/m 0,0 m/s (0 Bft) S 180 0 min 0 lux 11,0 C 12,8 C
13.06.2007 03:05 12,8 C 13,6 C 14,4 C 89 % 1009 hPa 0,0 l/m 0,0 m/s (0 Bft) S 180 0 min 0 lux 11,0 C 12,8 C
13.06.2007 03:10 13,0 C 13,6 C 14,4 C 89 % 1010 hPa 0,0 l/m 0,0 m/s (0 Bft) S 180 0 min 0 lux 11,2 C 13,0 C
13.06.2007 03:15 12,8 C 13,5 C 14,3 C 90 % 1009 hPa 0,0 l/m 0,0 m/s (0 Bft) S 180 0 min 0 lux 11,2 C 12,8 C
13.06.2007 03:20 12,8 C 13,4 C 14,3 C 90 % 1009 hPa 0,0 l/m 0,0 m/s (0 Bft) S 180 0 min 0 lux 11,2 C 12,8 C
13.06.2007 03:25 12,9 C 13,4 C 14,3 C 90 % 1009 hPa 0,0 l/m 0,0 m/s (0 Bft) S 180 0 min 0 lux 11,3 C 12,9 C
13.06.2007 03:30 12,8 C 13,4 C 14,3 C 90 % 1009 hPa 0,0 l/m 0,0 m/s (0 Bft) S 180 0 min 0 lux 11,2 C 12,8 C
13.06.2007 03:35 12,9 C 13,3 C 14,0 C 90 % 1009 hPa 0,0 l/m 0,0 m/s (0 Bft) S 180 0 min 0 lux 11,3 C 12,9 C
13.06.2007 03:40 12,7 C 13,3 C 14,0 C 90 % 1009 hPa 0,0 l/m 0,0 m/s (0 Bft) S 180 0 min 0 lux 11,1 C 12,7 C
13.06.2007 03:45 12,5 C 13,2 C 14,0 C 90 % 1009 hPa 0,0 l/m 0,0 m/s (0 Bft) S 180 0 min 0 lux 10,9 C 12,5 C
13.06.2007 03:50 12,4 C 13,2 C 14,0 C 90 % 1009 hPa 0,0 l/m 0,0 m/s (0 Bft) S 180 0 min 0 lux 10,8 C 12,4 C
13.06.2007 03:55 12,5 C 13,0 C 13,9 C 90 % 1009 hPa 0,0 l/m 0,0 m/s (0 Bft) S 180 0 min 0 lux 10,9 C 12,5 C
13.06.2007 04:00 12,5 C 12,9 C 13,8 C 90 % 1009 hPa 0,0 l/m 0,0 m/s (0 Bft) S 180 0 min 0 lux 10,9 C 12,5 C
13.06.2007 04:05 12,2 C 12,9 C 13,5 C 90 % 1009 hPa 0,0 l/m 0,0 m/s (0 Bft) S 180 0 min 0 lux 10,6 C 12,2 C
13.06.2007 04:10 12,2 C 12,8 C 13,5 C 90 % 1009 hPa 0,0 l/m 0,0 m/s (0 Bft) S 180 0 min 0 lux 10,6 C 12,2 C
13.06.2007 04:15 12,0 C 12,7 C 13,5 C 90 % 1009 hPa 0,0 l/m 0,0 m/s (0 Bft) S 180 0 min 0 lux 10,4 C 12,0 C
13.06.2007 04:20 12,0 C 12,6 C 13,6 C 90 % 1009 hPa 0,0 l/m 0,0 m/s (0 Bft) S 180 0 min 0 lux 10,4 C 12,0 C
13.06.2007 04:25 12,0 C 12,6 C 13,4 C 90 % 1009 hPa 0,0 l/m 0,0 m/s (0 Bft) S 180 0 min 0 lux 10,4 C 12,0 C
13.06.2007 04:30 11,9 C 12,6 C 13,5 C 91 % 1009 hPa 0,0 l/m 0,0 m/s (0 Bft) S 180 0 min 0 lux 10,5 C 11,9 C
13.06.2007 04:35 12,1 C 12,6 C 13,7 C 91 % 1009 hPa 0,0 l/m 0,0 m/s (0 Bft) S 180 0 min 0 lux 10,7 C 12,1 C
13.06.2007 04:40 12,2 C 12,6 C 13,6 C 91 % 1009 hPa 0,0 l/m 0,0 m/s (0 Bft) S 180 0 min 0 lux 10,8 C 12,2 C
13.06.2007 04:45 12,3 C 12,6 C 13,7 C 91 % 1009 hPa 0,0 l/m 0,0 m/s (0 Bft) S 180 0 min 0 lux 10,9 C 12,3 C
13.06.2007 04:50 12,3 C 12,7 C 13,5 C 91 % 1009 hPa 0,0 l/m 0,0 m/s (0 Bft) S 180 0 min 0 lux 10,9 C 12,3 C
13.06.2007 04:55 12,3 C 12,7 C 13,5 C 91 % 1009 hPa 0,0 l/m 0,0 m/s (0 Bft) S 180 0 min 49 lux 10,9 C 12,3 C
13.06.2007 05:00 12,4 C 12,8 C 13,7 C 91 % 1009 hPa 0,0 l/m 0,0 m/s (0 Bft) S 180 0 min 97 lux 11,0 C 12,4 C
13.06.2007 05:05 12,3 C 12,8 C 13,6 C 92 % 1009 hPa 0,0 l/m 0,0 m/s (0 Bft) S 180 0 min 160 lux 11,0 C 12,3 C
13.06.2007 05:10 12,3 C 12,7 C 13,5 C 92 % 1009 hPa 0,0 l/m 0,0 m/s (0 Bft) S 180 0 min 221 lux 11,0 C 12,3 C
13.06.2007 05:15 12,2 C 12,7 C 13,4 C 91 % 1009 hPa 0,0 l/m 0,0 m/s (0 Bft) S 180 0 min 321 lux 10,8 C 12,2 C
13.06.2007 05:20 12,2 C 12,7 C 13,5 C 91 % 1009 hPa 0,0 l/m 0,0 m/s (0 Bft) S 180 0 min 396 lux 10,8 C 12,2 C
13.06.2007 05:25 12,4 C 12,7 C 13,6 C 92 % 1009 hPa 0,0 l/m 0,0 m/s (0 Bft) S 180 0 min 415 lux 11,1 C 12,4 C
13.06.2007 05:30 12,4 C 12,7 C 13,6 C 92 % 1009 hPa 0,0 l/m 0,0 m/s (0 Bft) S 180 0 min 441 lux 11,1 C 12,4 C
13.06.2007 05:35 12,5 C 12,8 C 13,5 C 92 % 1009 hPa 0,0 l/m 0,0 m/s (0 Bft) S 180 0 min 567 lux 11,2 C 12,5 C
13.06.2007 05:40 12,6 C 12,8 C 13,6 C 91 % 1009 hPa 0,0 l/m 0,0 m/s (0 Bft) S 180 0 min 852 lux 11,2 C 12,6 C
13.06.2007 05:45 12,6 C 12,8 C 13,8 C 91 % 1009 hPa 0,0 l/m 0,0 m/s (0 Bft) S 180 0 min 1,10 klux 11,2 C 12,6 C
13.06.2007 05:50 12,7 C 12,9 C 13,9 C 92 % 1009 hPa 0,0 l/m 0,0 m/s (0 Bft) S 180 0 min 1,29 klux 11,4 C 12,7 C
13.06.2007 05:55 12,7 C 12,9 C 13,8 C 91 % 1009 hPa 0,0 l/m 0,0 m/s (0 Bft) S 180 0 min 2,14 klux 11,3 C 12,7 C
13.06.2007 06:00 12,7 C 12,8 C 13,8 C 91 % 1009 hPa 0,0 l/m 0,0 m/s (0 Bft) S 180 0 min 3,09 klux 11,3 C 12,7 C
13.06.2007 06:05 12,7 C 12,8 C 13,7 C 91 % 1009 hPa 0,0 l/m 0,0 m/s (0 Bft) S 185 0 min 3,17 klux 11,3 C 12,7 C
13.06.2007 06:10 12,9 C 12,8 C 13,8 C 91 % 1009 hPa 0,0 l/m 0,0 m/s (0 Bft) S 180 0 min 3,39 klux 11,5 C 12,9 C
13.06.2007 06:15 13,0 C 12,8 C 13,9 C 90 % 1009 hPa 0,0 l/m 0,0 m/s (0 Bft) S 180 0 min 3,68 klux 11,4 C 13,0 C
13.06.2007 06:20 13,0 C 12,8 C 13,8 C 90 % 1009 hPa 0,0 l/m 0,0 m/s (0 Bft) S 180 0 min 5,37 klux 11,4 C 13,0 C
13.06.2007 06:25 13,2 C 12,8 C 13,8 C 89 % 1009 hPa 0,0 l/m 0,0 m/s (0 Bft) S 180 0 min 5,86 klux 11,4 C 13,2 C
13.06.2007 06:30 13,2 C 12,8 C 14,0 C 89 % 1009 hPa 0,0 l/m 0,0 m/s (0 Bft) S 180 0 min 6,49 klux 11,4 C 13,2 C
13.06.2007 06:35 13,4 C 12,8 C 14,3 C 89 % 1009 hPa 0,0 l/m 0,0 m/s (0 Bft) S 180 0 min 8,18 klux 11,6 C 13,4 C
13.06.2007 06:40 13,5 C 12,8 C 14,3 C 89 % 1009 hPa 0,0 l/m 0,0 m/s (0 Bft) S 180 0 min 8,89 klux 11,7 C 13,5 C
13.06.2007 06:45 14,1 C 12,9 C 14,6 C 88 % 1009 hPa 0,0 l/m 0,0 m/s (0 Bft) S 180 0 min 8,91 klux 12,1 C 14,1 C
13.06.2007 06:50 14,1 C 12,9 C 14,7 C 87 % 1009 hPa 0,0 l/m 0,0 m/s (0 Bft) S 180 0 min 10,1 klux 12,0 C 14,1 C
13.06.2007 06:55 14,3 C 13,0 C 14,7 C 85 % 1009 hPa 0,0 l/m 0,0 m/s (0 Bft) S 180 0 min 10,0 klux 11,8 C 14,3 C
13.06.2007 07:00 14,4 C 13,2 C 14,7 C 83 % 1009 hPa 0,0 l/m 0,0 m/s (0 Bft) S 180 0 min 6,63 klux 11,5 C 14,4 C
13.06.2007 07:05 14,2 C 13,4 C 14,8 C 82 % 1009 hPa 0,0 l/m 0,0 m/s (0 Bft) S 180 0 min 6,77 klux 11,2 C 14,2 C
13.06.2007 07:10 14,2 C 13,5 C 14,7 C 82 % 1010 hPa 0,0 l/m 0,0 m/s (0 Bft) S 180 0 min 5,97 klux 11,2 C 14,2 C
13.06.2007 07:15 14,4 C 13,7 C 14,8 C 83 % 1010 hPa 0,0 l/m 0,0 m/s (0 Bft) S-SW 205 0 min 8,17 klux 11,5 C 14,4 C
13.06.2007 07:20 15,2 C 13,9 C 15,3 C 83 % 1010 hPa 0,0 l/m 0,0 m/s (0 Bft) S-SW 205 0 min 12,9 klux 12,3 C 15,2 C
13.06.2007 07:25 15,6 C 14,1 C 16,7 C 81 % 1010 hPa 0,0 l/m 0,0 m/s (0 Bft) S-SW 205 0 min 18,9 klux 12,3 C 15,6 C
13.06.2007 07:30 16,2 C 14,2 C 16,8 C 73 % 1010 hPa 0,0 l/m 0,0 m/s (0 Bft) S-SW 205 0 min 18,7 klux 11,4 C 16,2 C
13.06.2007 07:35 16,0 C 14,4 C 16,3 C 72 % 1010 hPa 0,0 l/m 0,0 m/s (0 Bft) S-SW 205 0 min 15,0 klux 11,0 C 16,0 C
13.06.2007 07:40 16,2 C 14,6 C 16,3 C 73 % 1010 hPa 0,0 l/m 0,0 m/s (0 Bft) S-SW 205 0 min 14,5 klux 11,4 C 16,2 C
13.06.2007 07:45 16,2 C 14,7 C 16,6 C 74 % 1010 hPa 0,0 l/m 0,0 m/s (0 Bft) S-SW 205 0 min 15,0 klux 11,6 C 16,2 C
13.06.2007 07:49 16,4 C 14,9 C 16,6 C 74 % 1009 hPa 0,0 l/m 0,0 m/s (0 Bft) SW 220 0 min 14,6 klux 11,8 C 16,4 C
13.06.2007 07:55 16,4 C 15,1 C 17,0 C 74 % 1009 hPa 0,0 l/m 0,0 m/s (0 Bft) SW 220 0 min 14,5 klux 11,8 C 16,4 C
13.06.2007 08:00 16,4 C 15,2 C 16,8 C 75 % 1009 hPa 0,0 l/m 0,0 m/s (0 Bft) SW 225 0 min 14,5 klux 12,0 C 16,4 C
13.06.2007 08:05 16,6 C 15,2 C 16,9 C 76 % 1010 hPa 0,0 l/m 0,0 m/s (0 Bft) SW 225 0 min 14,3 klux 12,3 C 16,6 C
13.06.2007 08:10 16,2 C 15,4 C 17,0 C 77 % 1010 hPa 0,0 l/m 0,0 m/s (0 Bft) SW 225 0 min 16,7 klux 12,2 C 16,2 C
13.06.2007 08:15 16,6 C 15,6 C 17,1 C 77 % 1010 hPa 0,0 l/m 0,0 m/s (0 Bft) SW 220 0 min 17,2 klux 12,5 C 16,6 C
13.06.2007 08:20 17,4 C 15,7 C 19,3 C 75 % 1010 hPa 0,0 l/m 0,0 m/s (0 Bft) SW 215 0 min 29,3 klux 12,9 C 17,4 C
13.06.2007 08:25 18,5 C 16,0 C 19,6 C 66 % 1010 hPa 0,0 l/m 0,0 m/s (0 Bft) SW 215 0 min 30,3 klux 12,0 C 18,5 C
13.06.2007 08:30 18,1 C 16,3 C 19,0 C 66 % 1009 hPa 0,0 l/m 0,0 m/s (0 Bft) SW 215 0 min 28,5 klux 11,6 C 18,1 C
13.06.2007 08:35 18,4 C 16,5 C 20,3 C 66 % 1009 hPa 0,0 l/m 1,7 m/s (2 Bft) W-SW22.5 240 0 min 30,3 klux 11,9 C 18,4 C
13.06.2007 08:40 18,5 C 16,7 C 21,1 C 65 % 1010 hPa 0,0 l/m 1,5 m/s (1 Bft) SW22.5 225 0 min 33,9 klux 11,8 C 18,5 C
13.06.2007 08:45 18,1 C 16,8 C 21,4 C 64 % 1010 hPa 0,0 l/m 2,4 m/s (2 Bft) W22.5 260 0 min 38,3 klux 11,2 C 17,1 C
13.06.2007 08:50 18,7 C 16,9 C 22,2 C 64 % 1009 hPa 0,0 l/m 1,7 m/s (2 Bft) SW22.5 220 0 min 39,5 klux 11,7 C 18,7 C
13.06.2007 08:55 19,3 C 17,0 C 22,7 C 62 % 1009 hPa 0,0 l/m 1,7 m/s (2 Bft) SW22.5 220 5 min 41,5 klux 11,8 C 19,3 C
13.06.2007 09:00 19,3 C 17,2 C 21,9 C 61 % 1009 hPa 0,0 l/m 2,3 m/s (2 Bft) W-SW45 240 0 min 34,9 klux 11,6 C 18,6 C
13.06.2007 09:05 19,0 C 17,4 C 21,5 C 62 % 1009 hPa 0,0 l/m 4,0 m/s (3 Bft) SW45 235 5 min 46,7 klux 11,6 C 16,2 C
13.06.2007 09:10 19,4 C 17,5 C 22,9 C 60 % 1009 hPa 0,0 l/m 2,9 m/s (2 Bft) W-SW45 250 5 min 52,8 klux 11,4 C 17,9 C
13.06.2007 09:15 19,3 C 17,8 C 23,1 C 58 % 1009 hPa 0,0 l/m 2,6 m/s (2 Bft) W-SW67.5 240 5 min 49,8 klux 10,8 C 18,1 C
13.06.2007 09:20 19,3 C 18,0 C 23,1 C 59 % 1009 hPa 0,0 l/m 3,0 m/s (2 Bft) W-SW45 250 5 min 48,0 klux 11,1 C 17,6 C
13.06.2007 09:25 19,2 C 18,1 C 23,4 C 60 % 1009 hPa 0,0 l/m 2,9 m/s (2 Bft) W22.5 260 0 min 44,6 klux 11,2 C 17,7 C
13.06.2007 09:30 19,0 C 18,2 C 23,1 C 60 % 1009 hPa 0,0 l/m 3,0 m/s (2 Bft) W22.5 260 5 min 52,8 klux 11,1 C 17,3 C
13.06.2007 09:35 19,4 C 18,4 C 23,9 C 60 % 1009 hPa 0,0 l/m 4,3 m/s (3 Bft) W45 270 5 min 49,7 klux 11,4 C 16,4 C
13.06.2007 09:40 19,2 C 18,6 C 23,9 C 59 % 1009 hPa 0,0 l/m 3,9 m/s (3 Bft) W22.5 260 5 min 54,8 klux 11,0 C 16,5 C
13.06.2007 09:45 19,4 C 18,7 C 24,4 C 58 % 1009 hPa 0,0 l/m 3,9 m/s (3 Bft) W45 270 5 min 55,7 klux 10,9 C 16,8 C
13.06.2007 09:50 19,8 C 19,3 C 24,9 C 59 % 1009 hPa 0,0 l/m 3,8 m/s (3 Bft) W22.5 270 5 min 56,2 klux 11,6 C 17,4 C
13.06.2007 09:55 20,0 C 20,1 C 24,6 C 56 % 1009 hPa 0,0 l/m 2,9 m/s (2 Bft) W45 280 0 min 33,7 klux 11,0 C 18,5 C
13.06.2007 10:00 20,5 C 20,3 C 24,4 C 57 % 1009 hPa 0,0 l/m 2,1 m/s (2 Bft) W45 260 5 min 61,6 klux 11,7 C 20,1 C
13.06.2007 10:05 19,9 C 20,6 C 24,1 C 57 % 1009 hPa 0,0 l/m 3,4 m/s (2 Bft) W45 275 0 min 27,8 klux 11,1 C 17,9 C
13.06.2007 10:10 20,1 C 21,0 C 24,4 C 57 % 1009 hPa 0,0 l/m 2,5 m/s (2 Bft) W-SW45 250 0 min 40,7 klux 11,3 C 19,1 C
13.06.2007 10:15 20,2 C 21,5 C 24,8 C 55 % 1009 hPa 0,0 l/m 2,2 m/s (2 Bft) SW22.5 230 5 min 64,6 klux 10,9 C 19,6 C
13.06.2007 10:20 20,9 C 21,9 C 25,4 C 53 % 1009 hPa 0,0 l/m 3,5 m/s (3 Bft) W-SW67.5 240 5 min 68,7 klux 11,0 C 18,9 C
13.06.2007 10:25 20,6 C 22,7 C 26,6 C 52 % 1009 hPa 0,0 l/m 3,4 m/s (2 Bft) W-SW67.5 245 5 min 70,4 klux 10,4 C 18,7 C
13.06.2007 10:30 21,6 C 23,7 C 26,6 C 54 % 1009 hPa 0,0 l/m 2,4 m/s (2 Bft) SW45 235 5 min 69,5 klux 11,9 C 20,8 C
13.06.2007 10:35 22,5 C 24,0 C 27,3 C 49 % 1009 hPa 0,0 l/m 0,1 m/s (0 Bft) W-SW67.5 250 5 min 72,6 klux 11,2 C 22,5 C
13.06.2007 10:40 22,0 C 24,9 C 26,5 C 48 % 1009 hPa 0,0 l/m 1,3 m/s (1 Bft) W 265 5 min 70,2 klux 10,5 C 22,0 C
13.06.2007 10:45 22,0 C 24,5 C 24,4 C 50 % 1009 hPa 0,0 l/m 1,9 m/s (2 Bft) S67.5 175 0 min 54,6 klux 11,1 C 21,9 C
13.06.2007 10:50 22,0 C 24,6 C 26,1 C 46 % 1009 hPa 0,0 l/m 2,4 m/s (2 Bft) S-SW67.5 210 5 min 71,6 klux 9,8 C 21,3 C
13.06.2007 10:55 22,4 C 24,6 C 27,0 C 46 % 1009 hPa 0,0 l/m 2,2 m/s (2 Bft) S-SO45 160 5 min 76,0 klux 10,2 C 21,9 C
13.06.2007 11:00 21,8 C 24,6 C 25,3 C 46 % 1009 hPa 0,0 l/m 3,1 m/s (2 Bft) W-SW22.5 245 0 min 28,9 klux 9,7 C 20,4 C
13.06.2007 11:05 21,2 C 24,0 C 24,7 C 48 % 1009 hPa 0,0 l/m 3,9 m/s (3 Bft) W-SW45 250 0 min 32,0 klux 9,7 C 18,9 C
13.06.2007 11:10 21,6 C 23,8 C 24,5 C 48 % 1009 hPa 0,0 l/m 3,5 m/s (3 Bft) W-SW45 240 0 min 29,3 klux 10,1 C 19,7 C
13.06.2007 11:15 21,9 C 23,8 C 26,4 C 48 % 1009 hPa 0,0 l/m 1,7 m/s (2 Bft) S45 185 0 min 51,1 klux 10,4 C 21,9 C
13.06.2007 11:20 22,9 C 24,4 C 26,3 C 47 % 1009 hPa 0,0 l/m 2,3 m/s (2 Bft) SW67.5 215 5 min 69,6 klux 11,0 C 22,3 C
13.06.2007 11:25 21,8 C 24,5 C 25,7 C 46 % 1009 hPa 0,0 l/m 2,4 m/s (2 Bft) SW22.5 230 0 min 24,1 klux 9,7 C 21,0 C
13.06.2007 11:30 21,8 C 24,2 C 24,9 C 46 % 1009 hPa 0,0 l/m 3,7 m/s (3 Bft) W-SW45 240 0 min 24,1 klux 9,7 C 19,8 C
13.06.2007 11:35 21,2 C 23,8 C 25,2 C 48 % 1009 hPa 0,0 l/m 3,6 m/s (3 Bft) W22.5 260 0 min 26,0 klux 9,7 C 19,1 C
13.06.2007 11:40 21,3 C 23,5 C 25,1 C 48 % 1009 hPa 0,0 l/m 3,6 m/s (3 Bft) W-SW45 255 0 min 48,9 klux 9,8 C 19,3 C
13.06.2007 11:45 20,8 C 23,3 C 24,0 C 50 % 1009 hPa 0,0 l/m 4,1 m/s (3 Bft) W22.5 265 0 min 29,9 klux 10,0 C 18,2 C
13.06.2007 11:50 22,0 C 24,0 C 26,4 C 48 % 1009 hPa 0,0 l/m 3,9 m/s (3 Bft) W22.5 260 5 min 85,6 klux 10,5 C 19,8 C
13.06.2007 11:55 22,5 C 24,6 C 26,4 C 45 % 1009 hPa 0,0 l/m 3,0 m/s (2 Bft) W-SW45 255 5 min 79,6 klux 10,0 C 21,2 C
13.06.2007 12:00 22,2 C 25,4 C 26,4 C 43 % 1009 hPa 0,0 l/m 3,0 m/s (2 Bft) SW67.5 230 5 min 80,6 klux 9,0 C 20,8 C
13.06.2007 12:05 22,3 C 25,4 C 26,6 C 46 % 1009 hPa 0,0 l/m 4,0 m/s (3 Bft) SW45 225 5 min 78,9 klux 10,1 C 20,1 C
13.06.2007 12:10 22,7 C 26,1 C 27,0 C 43 % 1009 hPa 0,0 l/m 3,0 m/s (2 Bft) W-SW45 240 5 min 81,8 klux 9,5 C 21,4 C
13.06.2007 12:15 22,7 C 26,0 C 26,1 C 43 % 1009 hPa 0,0 l/m 3,1 m/s (2 Bft) SW67.5 225 0 min 38,3 klux 9,5 C 21,3 C
13.06.2007 12:20 22,7 C 26,3 C 26,8 C 42 % 1009 hPa 0,0 l/m 5,9 m/s (4 Bft) W22.5 260 0 min 41,2 klux 9,1 C 19,5 C
13.06.2007 12:25 23,3 C 27,1 C 27,9 C 42 % 1009 hPa 0,0 l/m 5,1 m/s (3 Bft) SW45 235 5 min 88,1 klux 9,7 C 20,7 C
13.06.2007 12:30 23,4 C 27,5 C 27,9 C 40 % 1009 hPa 0,0 l/m 5,8 m/s (4 Bft) SW45 235 5 min 84,4 klux 9,0 C 20,5 C
13.06.2007 12:35 22,4 C 27,5 C 28,2 C 40 % 1009 hPa 0,0 l/m 4,7 m/s (3 Bft) SW67.5 220 5 min 76,1 klux 8,1 C 19,8 C
13.06.2007 12:40 22,6 C 27,7 C 28,1 C 41 % 1009 hPa 0,0 l/m 3,9 m/s (3 Bft) W45 270 0 min 65,2 klux 8,7 C 20,6 C
13.06.2007 12:45 22,1 C 27,3 C 27,8 C 40 % 1009 hPa 0,0 l/m 4,3 m/s (3 Bft) W-SW45 250 0 min 30,8 klux 7,9 C 19,7 C
13.06.2007 12:50 22,0 C 26,8 C 26,5 C 41 % 1009 hPa 0,0 l/m 4,1 m/s (3 Bft) W-SW22.5 255 5 min 87,7 klux 8,1 C 19,7 C
13.06.2007 12:55 22,8 C 26,6 C 27,8 C 42 % 1009 hPa 0,0 l/m 3,8 m/s (3 Bft) W45 260 5 min 78,5 klux 9,2 C 20,9 C
13.06.2007 13:00 23,3 C 27,3 C 28,3 C 42 % 1009 hPa 0,0 l/m 3,4 m/s (2 Bft) SW67.5 225 5 min 86,8 klux 9,7 C 21,8 C
13.06.2007 13:05 23,3 C 27,2 C 28,0 C 37 % 1009 hPa 0,0 l/m 3,8 m/s (3 Bft) S-SO45 160 0 min 33,4 klux 7,8 C 21,5 C
13.06.2007 13:10 23,7 C 27,0 C 28,4 C 40 % 1009 hPa 0,0 l/m 5,2 m/s (3 Bft) W45 260 5 min 92,7 klux 9,3 C 21,2 C
13.06.2007 13:15 23,7 C 27,5 C 28,3 C 37 % 1009 hPa 0,0 l/m 5,2 m/s (3 Bft) W-SW45 240 5 min 84,7 klux 8,1 C 21,1 C
13.06.2007 13:20 23,3 C 27,8 C 29,2 C 36 % 1009 hPa 0,0 l/m 4,9 m/s (3 Bft) W-SW45 255 5 min 91,6 klux 7,4 C 20,8 C
13.06.2007 13:25 23,7 C 27,7 C 29,1 C 36 % 1009 hPa 0,0 l/m 5,9 m/s (4 Bft) W22.5 260 5 min 88,9 klux 7,7 C 20,8 C
13.06.2007 13:30 23,6 C 27,1 C 28,3 C 38 % 1009 hPa 0,0 l/m 4,7 m/s (3 Bft) SW67.5 235 0 min 40,8 klux 8,4 C 21,3 C
13.06.2007 13:35 23,7 C 27,5 C 29,1 C 38 % 1009 hPa 0,0 l/m 7,3 m/s (4 Bft) W45 260 5 min 88,3 klux 8,5 C 20,3 C
13.06.2007 13:40 23,8 C 28,1 C 29,5 C 37 % 1009 hPa 0,0 l/m 3,8 m/s (3 Bft) SW67.5 235 5 min 89,5 klux 8,2 C 22,1 C
13.06.2007 13:45 24,1 C 29,0 C 30,0 C 34 % 1009 hPa 0,0 l/m 2,1 m/s (2 Bft) SO45 145 5 min 87,9 klux 7,2 C 23,8 C
13.06.2007 13:50 25,9 C 30,1 C 31,1 C 36 % 1009 hPa 0,0 l/m 2,1 m/s (2 Bft) SO45 130 5 min 92,9 klux 9,7 C 25,7 C
13.06.2007 13:55 26,1 C 29,9 C 31,4 C 32 % 1009 hPa 0,0 l/m 5,5 m/s (3 Bft) W-SW67.5 240 5 min 94,2 klux 8,1 C 24,1 C
13.06.2007 14:00 23,8 C 29,9 C 30,2 C 35 % 1009 hPa 0,0 l/m 5,2 m/s (3 Bft) W45 260 5 min 86,5 klux 7,4 C 21,3 C
13.06.2007 14:05 23,6 C 29,4 C 29,3 C 36 % 1008 hPa 0,0 l/m 5,0 m/s (3 Bft) W22.5 260 0 min 34,5 klux 7,6 C 21,1 C
13.06.2007 14:10 24,2 C 29,6 C 29,5 C 35 % 1008 hPa 0,0 l/m 4,0 m/s (3 Bft) W-SW45 250 5 min 91,4 klux 7,8 C 22,5 C
13.06.2007 14:15 24,2 C 29,8 C 29,5 C 35 % 1008 hPa 0,0 l/m 5,8 m/s (4 Bft) W-SW67.5 250 5 min 98,6 klux 7,8 C 21,5 C
13.06.2007 14:20 24,5 C 29,9 C 29,7 C 34 % 1008 hPa 0,0 l/m 6,3 m/s (4 Bft) W-SW22.5 250 5 min 100 klux 7,6 C 21,7 C
13.06.2007 14:25 24,2 C 29,1 C 29,2 C 33 % 1008 hPa 0,0 l/m 0,6 m/s (1 Bft) SW67.5 215 0 min 63,5 klux 6,9 C 24,2 C
13.06.2007 14:30 24,1 C 28,5 C 29,1 C 35 % 1008 hPa 0,0 l/m 5,8 m/s (4 Bft) W-SW45 240 0 min 25,6 klux 7,7 C 21,4 C
13.06.2007 14:35 23,7 C 27,6 C 28,2 C 37 % 1008 hPa 0,0 l/m 3,6 m/s (3 Bft) W-SW67.5 250 0 min 31,5 klux 8,1 C 22,1 C
13.06.2007 14:40 24,2 C 27,1 C 28,3 C 34 % 1008 hPa 0,0 l/m 2,6 m/s (2 Bft) SW45 235 0 min 34,8 klux 7,3 C 23,4 C
13.06.2007 14:45 24,1 C 27,0 C 28,5 C 35 % 1008 hPa 0,0 l/m 2,9 m/s (2 Bft) SW45 215 0 min 40,3 klux 7,7 C 23,1 C
13.06.2007 14:50 23,7 C 26,9 C 28,0 C 35 % 1008 hPa 0,0 l/m 3,5 m/s (3 Bft) SW22.5 235 0 min 40,3 klux 7,3 C 22,2 C
13.06.2007 14:55 23,5 C 26,6 C 28,1 C 34 % 1008 hPa 0,0 l/m 4,1 m/s (3 Bft) W22.5 265 0 min 28,4 klux 6,7 C 21,5 C
13.06.2007 15:00 24,0 C 26,3 C 27,4 C 35 % 1008 hPa 0,0 l/m 3,6 m/s (3 Bft) W-SW45 245 0 min 27,2 klux 7,6 C 22,4 C
13.06.2007 15:05 23,8 C 26,1 C 27,6 C 36 % 1008 hPa 0,0 l/m 2,8 m/s (2 Bft) W-SW45 240 0 min 27,2 klux 7,8 C 22,8 C
13.06.2007 15:10 23,1 C 25,8 C 27,5 C 35 % 1008 hPa 0,0 l/m 2,5 m/s (2 Bft) W-SW45 250 0 min 27,7 klux 6,8 C 22,3 C
13.06.2007 15:15 23,3 C 25,7 C 27,2 C 37 % 1008 hPa 0,0 l/m 3,2 m/s (2 Bft) W45 270 0 min 28,2 klux 7,8 C 21,9 C
13.06.2007 15:20 23,2 C 25,8 C 27,3 C 37 % 1008 hPa 0,0 l/m 3,4 m/s (3 Bft) W-SW45 250 0 min 33,3 klux 7,7 C 21,7 C
13.06.2007 15:25 23,4 C 26,0 C 27,0 C 38 % 1008 hPa 0,0 l/m 2,4 m/s (2 Bft) W-SW67.5 240 5 min 65,2 klux 8,3 C 22,7 C
13.06.2007 15:30 23,8 C 26,9 C 27,6 C 36 % 1008 hPa 0,0 l/m 4,2 m/s (3 Bft) W-SW67.5 240 5 min 85,0 klux 7,8 C 21,8 C
13.06.2007 15:35 24,0 C 27,1 C 27,4 C 35 % 1008 hPa 0,0 l/m 3,0 m/s (2 Bft) SW45 225 0 min 48,6 klux 7,6 C 22,9 C
13.06.2007 15:40 23,7 C 27,3 C 27,2 C 35 % 1008 hPa 0,0 l/m 3,3 m/s (2 Bft) SW45 235 0 min 37,8 klux 7,3 C 22,3 C
13.06.2007 15:45 24,0 C 27,1 C 27,1 C 35 % 1008 hPa 0,0 l/m 4,2 m/s (3 Bft) W-SW22.5 255 5 min 87,1 klux 7,6 C 22,1 C
13.06.2007 15:50 24,4 C 28,9 C 27,1 C 35 % 1008 hPa 0,0 l/m 4,4 m/s (3 Bft) W22.5 260 5 min 74,5 klux 7,9 C 22,4 C
13.06.2007 15:55 24,7 C 28,9 C 26,9 C 34 % 1008 hPa 0,0 l/m 4,3 m/s (3 Bft) SW67.5 230 5 min 76,2 klux 7,8 C 22,9 C
13.06.2007 16:00 24,8 C 29,8 C 26,9 C 28 % 1008 hPa 0,0 l/m 4,3 m/s (3 Bft) SW67.5 230 5 min 73,0 klux 5,0 C 23,0 C
13.06.2007 16:05 25,5 C 31,2 C 26,9 C 30 % 1008 hPa 0,0 l/m 4,9 m/s (3 Bft) W-SW45 245 5 min 79,2 klux 6,6 C 23,6 C
13.06.2007 16:10 25,7 C 31,3 C 27,4 C 29 % 1008 hPa 0,0 l/m 4,4 m/s (3 Bft) S67.5 185 5 min 84,4 klux 6,3 C 24,0 C
13.06.2007 16:15 25,7 C 31,8 C 27,1 C 27 % 1008 hPa 0,0 l/m 3,5 m/s (3 Bft) SW45 225 5 min 84,2 klux 5,3 C 24,5 C
13.06.2007 16:20 26,0 C 32,9 C 27,6 C 28 % 1008 hPa 0,0 l/m 5,0 m/s (3 Bft) SW45 235 5 min 72,4 klux 6,1 C 24,2 C
13.06.2007 16:25 26,0 C 33,0 C 27,6 C 28 % 1008 hPa 0,0 l/m 4,0 m/s (3 Bft) W-SW45 255 5 min 72,9 klux 6,1 C 24,6 C
13.06.2007 16:30 25,9 C 33,3 C 28,3 C 27 % 1008 hPa 0,0 l/m 5,1 m/s (3 Bft) SW67.5 230 5 min 70,6 klux 5,5 C 24,0 C
13.06.2007 16:35 26,2 C 32,8 C 28,4 C 29 % 1008 hPa 0,0 l/m 5,1 m/s (3 Bft) SW45 230 5 min 69,7 klux 6,7 C 24,4 C
13.06.2007 16:40 26,0 C 33,4 C 28,8 C 29 % 1008 hPa 0,0 l/m 4,1 m/s (3 Bft) W-SW67.5 250 5 min 69,3 klux 6,6 C 24,5 C
13.06.2007 16:45 25,1 C 33,4 C 29,2 C 30 % 1008 hPa 0,0 l/m 3,4 m/s (2 Bft) W-SW22.5 240 5 min 68,1 klux 6,3 C 23,9 C
13.06.2007 16:50 25,1 C 33,1 C 28,2 C 30 % 1008 hPa 0,0 l/m 3,1 m/s (2 Bft) SW45 230 5 min 54,0 klux 6,3 C 24,1 C
13.06.2007 16:55 24,9 C 32,5 C 28,3 C 30 % 1008 hPa 0,0 l/m 3,6 m/s (3 Bft) W-SW67.5 255 5 min 60,8 klux 6,1 C 23,5 C
13.06.2007 17:00 25,2 C 33,1 C 29,2 C 28 % 1008 hPa 0,0 l/m 5,3 m/s (3 Bft) W22.5 265 5 min 68,0 klux 5,4 C 23,0 C
13.06.2007 17:05 25,6 C 33,4 C 29,6 C 28 % 1008 hPa 0,0 l/m 4,8 m/s (3 Bft) W22.5 270 5 min 65,0 klux 5,7 C 23,7 C
13.06.2007 17:10 25,3 C 33,7 C 28,9 C 29 % 1007 hPa 0,0 l/m 5,1 m/s (3 Bft) W-SW22.5 255 5 min 56,7 klux 6,0 C 23,2 C
13.06.2007 17:15 24,9 C 33,5 C 28,8 C 29 % 1007 hPa 0,0 l/m 6,3 m/s (4 Bft) W-SW22.5 250 5 min 63,3 klux 5,6 C 22,3 C
13.06.2007 17:20 24,9 C 33,0 C 28,5 C 30 % 1008 hPa 0,0 l/m 3,2 m/s (2 Bft) W-SW22.5 255 0 min 32,0 klux 6,1 C 23,7 C
13.06.2007 17:25 24,4 C 31,6 C 27,8 C 30 % 1007 hPa 0,0 l/m 2,4 m/s (2 Bft) W-SW45 250 0 min 17,1 klux 5,7 C 23,8 C
13.06.2007 17:30 24,2 C 30,1 C 27,4 C 31 % 1007 hPa 0,0 l/m 3,2 m/s (2 Bft) W-SW22.5 250 0 min 16,2 klux 6,0 C 23,0 C
13.06.2007 17:35 23,7 C 28,9 C 26,9 C 31 % 1007 hPa 0,0 l/m 4,3 m/s (3 Bft) W45 265 0 min 16,2 klux 5,6 C 21,6 C
13.06.2007 17:40 23,9 C 28,5 C 26,9 C 32 % 1007 hPa 0,0 l/m 4,8 m/s (3 Bft) W22.5 260 0 min 19,7 klux 6,2 C 21,6 C
13.06.2007 17:45 23,9 C 28,1 C 26,9 C 32 % 1007 hPa 0,0 l/m 4,1 m/s (3 Bft) W22.5 270 0 min 20,0 klux 6,2 C 22,0 C
13.06.2007 17:50 24,2 C 27,9 C 27,3 C 32 % 1007 hPa 0,0 l/m 1,6 m/s (2 Bft) W-SW45 250 0 min 30,6 klux 6,5 C 24,2 C
13.06.2007 17:55 24,5 C 28,0 C 27,1 C 32 % 1007 hPa 0,0 l/m 3,3 m/s (2 Bft) W22.5 270 0 min 30,4 klux 6,7 C 23,2 C
13.06.2007 18:00 24,0 C 27,5 C 26,7 C 31 % 1007 hPa 0,0 l/m 3,4 m/s (2 Bft) W22.5 260 0 min 19,6 klux 5,8 C 22,6 C
13.06.2007 18:05 23,8 C 26,9 C 26,3 C 32 % 1007 hPa 0,0 l/m 3,5 m/s (3 Bft) W22.5 260 0 min 16,2 klux 6,1 C 22,3 C
13.06.2007 18:10 23,8 C 26,7 C 26,3 C 36 % 1007 hPa 0,0 l/m 2,4 m/s (2 Bft) W-NW22.5 290 0 min 17,2 klux 7,8 C 23,2 C
13.06.2007 18:15 23,6 C 26,3 C 26,4 C 35 % 1007 hPa 0,0 l/m 3,1 m/s (2 Bft) W22.5 265 0 min 26,9 klux 7,2 C 22,3 C
13.06.2007 18:20 24,1 C 26,3 C 26,2 C 35 % 1007 hPa 0,0 l/m 4,0 m/s (3 Bft) W-NW45 300 5 min 45,0 klux 7,7 C 22,3 C
13.06.2007 18:25 24,5 C 27,1 C 26,3 C 35 % 1007 hPa 0,0 l/m 3,6 m/s (3 Bft) W-NW45 285 5 min 37,2 klux 8,0 C 23,0 C
13.06.2007 18:30 24,5 C 27,3 C 26,0 C 35 % 1007 hPa 0,0 l/m 3,1 m/s (2 Bft) W45 280 5 min 42,1 klux 8,0 C 23,4 C
13.06.2007 18:35 24,1 C 28,1 C 25,7 C 34 % 1007 hPa 0,0 l/m 3,6 m/s (3 Bft) W45 275 5 min 39,1 klux 7,2 C 22,6 C
13.06.2007 18:40 24,4 C 28,7 C 25,6 C 36 % 1007 hPa 0,0 l/m 3,6 m/s (3 Bft) W45 275 5 min 40,1 klux 8,4 C 22,9 C
13.06.2007 18:45 24,2 C 29,2 C 25,4 C 35 % 1007 hPa 0,0 l/m 2,2 m/s (2 Bft) W22.5 260 5 min 38,3 klux 7,8 C 23,8 C
13.06.2007 18:50 24,2 C 30,0 C 25,4 C 35 % 1007 hPa 0,0 l/m 1,9 m/s (2 Bft) W-SW22.5 255 5 min 36,9 klux 7,8 C 24,1 C
13.06.2007 18:55 24,2 C 30,4 C 25,3 C 34 % 1007 hPa 0,0 l/m 2,6 m/s (2 Bft) W-NW22.5 285 5 min 33,7 klux 7,3 C 23,4 C
13.06.2007 19:00 24,2 C 30,6 C 25,2 C 35 % 1007 hPa 0,0 l/m 2,3 m/s (2 Bft) W45 270 5 min 31,0 klux 7,8 C 23,7 C
13.06.2007 19:05 24,5 C 30,6 C 25,0 C 34 % 1007 hPa 0,0 l/m 3,1 m/s (2 Bft) W22.5 260 5 min 30,2 klux 7,6 C 23,4 C
13.06.2007 19:10 25,3 C 30,4 C 25,0 C 32 % 1007 hPa 0,0 l/m 2,4 m/s (2 Bft) W22.5 265 5 min 28,7 klux 7,4 C 24,8 C
13.06.2007 19:15 27,0 C 30,0 C 24,4 C 30 % 1007 hPa 0,0 l/m 2,4 m/s (2 Bft) NW45 310 5 min 27,6 klux 7,9 C 26,6 C
13.06.2007 19:20 26,8 C 29,8 C 24,4 C 31 % 1007 hPa 0,0 l/m 2,7 m/s (2 Bft) W-NW22.5 285 5 min 27,5 klux 8,2 C 26,2 C
13.06.2007 19:25 26,2 C 29,6 C 24,3 C 30 % 1007 hPa 0,0 l/m 2,9 m/s (2 Bft) W-NW45 285 5 min 25,6 klux 7,2 C 25,4 C
13.06.2007 19:30 28,1 C 29,7 C 24,3 C 29 % 1007 hPa 0,0 l/m 0,3 m/s (1 Bft) W22.5 275 5 min 25,3 klux 8,4 C 28,1 C
13.06.2007 19:35 29,0 C 29,7 C 24,1 C 27 % 1007 hPa 0,0 l/m 0,0 m/s (0 Bft) NW 305 5 min 23,0 klux 8,1 C 29,0 C
13.06.2007 19:40 27,2 C 29,4 C 23,9 C 28 % 1007 hPa 0,0 l/m 2,4 m/s (2 Bft) W-NW22.5 295 0 min 20,9 klux 7,1 C 26,8 C
13.06.2007 19:45 24,8 C 28,9 C 23,9 C 33 % 1007 hPa 0,0 l/m 2,4 m/s (2 Bft) W45 280 0 min 18,3 klux 7,4 C 24,2 C
13.06.2007 19:50 24,0 C 28,1 C 23,7 C 34 % 1007 hPa 0,0 l/m 1,7 m/s (2 Bft) W22.5 270 0 min 9,6 klux 7,2 C 24,0 C
13.06.2007 19:55 23,0 C 27,6 C 23,6 C 36 % 1007 hPa 0,0 l/m 3,2 m/s (2 Bft) W22.5 260 0 min 10,6 klux 7,1 C 21,6 C
13.06.2007 20:00 22,9 C 26,8 C 23,3 C 37 % 1007 hPa 0,0 l/m 2,2 m/s (2 Bft) W22.5 265 0 min 8,88 klux 7,4 C 22,5 C
13.06.2007 20:05 22,4 C 26,1 C 23,2 C 39 % 1007 hPa 0,0 l/m 2,6 m/s (2 Bft) W22.5 265 0 min 8,53 klux 7,8 C 21,5 C
13.06.2007 20:10 22,2 C 25,8 C 23,3 C 40 % 1007 hPa 0,0 l/m 1,9 m/s (2 Bft) W22.5 265 0 min 8,30 klux 8,0 C 22,0 C
13.06.2007 20:15 22,1 C 25,3 C 22,7 C 40 % 1007 hPa 0,0 l/m 1,3 m/s (1 Bft) W 260 0 min 9,2 klux 7,9 C 22,1 C
13.06.2007 20:20 22,1 C 25,1 C 22,6 C 41 % 1007 hPa 0,0 l/m 0,0 m/s (0 Bft) W22.5 265 0 min 9,1 klux 8,2 C 22,1 C
13.06.2007 20:25 21,5 C 24,8 C 22,3 C 45 % 1007 hPa 0,0 l/m 0,0 m/s (0 Bft) W 275 0 min 6,63 klux 9,1 C 21,5 C
13.06.2007 20:30 21,5 C 24,5 C 22,3 C 45 % 1007 hPa 0,0 l/m 0,0 m/s (0 Bft) W 275 0 min 7,26 klux 9,1 C 21,5 C
13.06.2007 20:35 21,1 C 24,1 C 22,1 C 49 % 1007 hPa 0,0 l/m 0,0 m/s (0 Bft) W 275 0 min 6,28 klux 10,0 C 21,1 C
13.06.2007 20:40 20,8 C 23,8 C 22,1 C 52 % 1007 hPa 0,0 l/m 0,0 m/s (0 Bft) W 275 0 min 6,85 klux 10,6 C 20,8 C
13.06.2007 20:45 20,8 C 23,6 C 21,8 C 52 % 1007 hPa 0,0 l/m 0,0 m/s (0 Bft) W 275 0 min 6,65 klux 10,6 C 20,8 C
13.06.2007 20:50 20,4 C 23,2 C 21,7 C 53 % 1007 hPa 0,0 l/m 0,0 m/s (0 Bft) W 275 0 min 5,85 klux 10,5 C 20,4 C
13.06.2007 20:55 20,1 C 23,0 C 21,3 C 54 % 1007 hPa 0,0 l/m 0,0 m/s (0 Bft) W 275 0 min 5,35 klux 10,5 C 20,1 C
13.06.2007 21:00 19,8 C 22,8 C 21,1 C 55 % 1007 hPa 0,0 l/m 0,0 m/s (0 Bft) W 275 0 min 4,10 klux 10,5 C 19,8 C
13.06.2007 21:05 19,5 C 22,4 C 21,1 C 56 % 1007 hPa 0,0 l/m 0,0 m/s (0 Bft) W 275 0 min 3,35 klux 10,5 C 19,5 C
13.06.2007 21:10 19,3 C 22,1 C 20,8 C 57 % 1007 hPa 0,0 l/m 0,0 m/s (0 Bft) W 275 0 min 3,00 klux 10,6 C 19,3 C
13.06.2007 21:15 18,9 C 21,6 C 20,7 C 58 % 1007 hPa 0,0 l/m 0,0 m/s (0 Bft) W 275 0 min 2,12 klux 10,5 C 18,9 C
13.06.2007 21:20 18,7 C 21,5 C 20,5 C 59 % 1007 hPa 0,0 l/m 0,0 m/s (0 Bft) W 275 0 min 1,55 klux 10,5 C 18,7 C
13.06.2007 21:25 18,5 C 21,0 C 20,2 C 60 % 1007 hPa 0,0 l/m 0,0 m/s (0 Bft) W 275 0 min 1,17 klux 10,6 C 18,5 C
13.06.2007 21:30 18,2 C 20,7 C 20,2 C 60 % 1007 hPa 0,0 l/m 0,0 m/s (0 Bft) W 275 0 min 915 lux 10,3 C 18,2 C
13.06.2007 21:35 18,3 C 20,5 C 19,9 C 61 % 1007 hPa 0,0 l/m 0,0 m/s (0 Bft) W 275 0 min 713 lux 10,6 C 18,3 C
13.06.2007 21:40 17,9 C 20,4 C 19,7 C 62 % 1007 hPa 0,0 l/m 0,0 m/s (0 Bft) W 275 0 min 438 lux 10,5 C 17,9 C
13.06.2007 21:45 17,6 C 19,9 C 19,6 C 62 % 1007 hPa 0,0 l/m 0,0 m/s (0 Bft) W 275 0 min 240 lux 10,2 C 17,6 C
13.06.2007 21:50 17,4 C 19,8 C 19,2 C 63 % 1007 hPa 0,0 l/m 0,0 m/s (0 Bft) W 275 0 min 152 lux 10,3 C 17,4 C
13.06.2007 21:55 17,4 C 19,6 C 19,4 C 65 % 1008 hPa 0,0 l/m 0,0 m/s (0 Bft) W 275 0 min 99 lux 10,8 C 17,4 C
13.06.2007 22:00 17,0 C 19,4 C 19,1 C 65 % 1008 hPa 0,0 l/m 0,0 m/s (0 Bft) W 275 0 min 64 lux 10,4 C 17,0 C
13.06.2007 22:05 17,0 C 19,1 C 19,0 C 66 % 1008 hPa 0,0 l/m 0,0 m/s (0 Bft) W 275 0 min 46 lux 10,6 C 17,0 C
13.06.2007 22:10 16,9 C 18,9 C 18,6 C 68 % 1008 hPa 0,0 l/m 0,0 m/s (0 Bft) W 275 0 min 26 lux 11,0 C 16,9 C
13.06.2007 22:15 16,8 C 18,7 C 18,7 C 68 % 1008 hPa 0,0 l/m 0,0 m/s (0 Bft) W 275 0 min 16 lux 10,9 C 16,8 C
13.06.2007 22:20 16,7 C 18,4 C 18,5 C 69 % 1008 hPa 0,0 l/m 0,0 m/s (0 Bft) W 275 0 min 9 lux 11,0 C 16,7 C
13.06.2007 22:25 16,7 C 18,3 C 18,4 C 69 % 1008 hPa 0,0 l/m 0,0 m/s (0 Bft) W 270 0 min 5 lux 11,0 C 16,7 C
13.06.2007 22:30 16,5 C 18,1 C 18,3 C 69 % 1008 hPa 0,0 l/m 0,0 m/s (0 Bft) NO 50 0 min 4 lux 10,8 C 16,5 C
13.06.2007 22:35 16,3 C 18,0 C 18,1 C 70 % 1008 hPa 0,0 l/m 0,0 m/s (0 Bft) NO 50 0 min 1 lux 10,8 C 16,3 C
13.06.2007 22:40 16,4 C 17,8 C 18,2 C 71 % 1008 hPa 0,0 l/m 0,0 m/s (0 Bft) NO 50 0 min 0 lux 11,1 C 16,4 C
13.06.2007 22:45 16,1 C 17,7 C 18,0 C 72 % 1008 hPa 0,0 l/m 0,0 m/s (0 Bft) NO 50 0 min 0 lux 11,0 C 16,1 C
13.06.2007 22:50 16,0 C 17,6 C 17,7 C 72 % 1008 hPa 0,0 l/m 0,0 m/s (0 Bft) NO 50 0 min 0 lux 11,0 C 16,0 C
13.06.2007 22:55 15,6 C 17,3 C 17,6 C 73 % 1008 hPa 0,0 l/m 0,0 m/s (0 Bft) NO 50 0 min 0 lux 10,8 C 15,6 C
13.06.2007 23:00 15,6 C 17,3 C 17,5 C 74 % 1008 hPa 0,0 l/m 0,0 m/s (0 Bft) NO 50 0 min 0 lux 11,0 C 15,6 C
13.06.2007 23:05 15,3 C 17,1 C 17,3 C 75 % 1008 hPa 0,0 l/m 0,0 m/s (0 Bft) NO 50 0 min 0 lux 10,9 C 15,3 C
13.06.2007 23:10 15,2 C 16,9 C 17,0 C 76 % 1008 hPa 0,0 l/m 0,0 m/s (0 Bft) NO 50 0 min 0 lux 11,0 C 15,2 C
13.06.2007 23:15 15,2 C 16,8 C 17,0 C 76 % 1008 hPa 0,0 l/m 0,0 m/s (0 Bft) NO 50 0 min 0 lux 11,0 C 15,2 C
13.06.2007 23:20 15,0 C 16,7 C 17,1 C 77 % 1008 hPa 0,0 l/m 0,0 m/s (0 Bft) NO 50 0 min 0 lux 11,0 C 15,0 C
13.06.2007 23:25 15,0 C 16,6 C 17,3 C 77 % 1008 hPa 0,0 l/m 0,0 m/s (0 Bft) NO 50 0 min 0 lux 11,0 C 15,0 C
13.06.2007 23:30 15,1 C 16,5 C 17,0 C 78 % 1008 hPa 0,0 l/m 0,0 m/s (0 Bft) NO 50 0 min 0 lux 11,3 C 15,1 C
13.06.2007 23:35 15,0 C 16,4 C 17,0 C 78 % 1008 hPa 0,0 l/m 0,0 m/s (0 Bft) NO 50 0 min 0 lux 11,2 C 15,0 C
13.06.2007 23:40 14,7 C 16,3 C 16,6 C 79 % 1008 hPa 0,0 l/m 0,0 m/s (0 Bft) NO 50 0 min 0 lux 11,1 C 14,7 C
13.06.2007 23:45 14,5 C 16,1 C 16,7 C 79 % 1008 hPa 0,0 l/m 0,0 m/s (0 Bft) NO 50 0 min 0 lux 10,9 C 14,5 C
13.06.2007 23:50 14,5 C 16,1 C 16,5 C 79 % 1008 hPa 0,0 l/m 0,0 m/s (0 Bft) NO 50 0 min 0 lux 10,9 C 14,5 C
13.06.2007 23:55 14,3 C 15,9 C 16,1 C 80 % 1008 hPa 0,0 l/m 0,0 m/s (0 Bft) NO 50 0 min 0 lux 10,9 C 14,3 C
_ Min-Zeit 04:30 04:20 04:25 16:15 17:10 - 01:10 - - - - 16:00 04:30
Minimum _ 11,9 C 12,6 C 13,4 C 27 % 1007 hPa - 0,0 m/s (0 Bft) - - - - 5,0 C 11,9 C
_ Max-Zeit 19:35 17:10 13:55 05:05 00:00 00:00 13:35 - - 08:55 14:20 08:20 19:35
Maximum _ 29,0 C 33,7 C 31,4 C 92 % 1010 hPa 0,0 l/m 7,3 m/s
W (4 Bft)
- - 5 min 100 klux 12,9 C 29,0 C
Durchschnitt _ 19,0 C 21,0 C 21,2 C 60 % 1009 hPa #0,0 l/m 1,8 m/s (2 Bft) W - #6:45 h 26,4 klux 9,8 C 18,2 C